CRYOSAT 2

Last updated on Sun Jun 21 2026 00:03:39 GMT+0000 (Coordinated Universal Time)

1 36508U 10013A 26171.45859612 .00000175 00000+0 42616-4 0 9999 2 36508 92.0358 278.0966 0002136 91.0529 269.0923 14.51900248858553
UTC large
Height (km)
Speed (km/s)
/
Latitude / Longitude
Inclination (degrees)
Orbital Period (minutes)
Azimuth
Elevation
Range (km)
Doppler Factor

Next 0 passes for location: London (51.5072 / 0.1276)

No passes found over London.
CRYOSAT 2